COSMOS 1275 DEB

Satellite information

Favourite Embed

Satellite Type and Status

DEBRISIN ORBIT

Key statistics

Satellite COSMOS 1275 DEB at a glance.

Uptime

16103

Days in orbit

Revolutions

≈ 14.4

Per day

Orbit

LEO

Low Earth Orbit

Inclination

82.8

Latest

Satellite identification and parameters

Extended collection of information and parameters for COSMOS 1275 DEB.

Object identification

Identified? True

Debris? True

Object name: COSMOS 1275 DEB

International designator: 1981-053KT

Object number (NORAD): 17624

Object ID (CCSDS): 17624

Country: COMMONWEALTH OF INDEPENDENT STATES (CIS)

Current information (Y/N): Y

RCS size: SMALL

Orbital parameters

Period: 99.686 minutes

Inclination: 82.8423 deg

SMA: 7121.69 km

Apoapsis: 752.212 km

Periapsis: 734.897 km

RAAN: 8.9429 deg

Eccentricy: 0.0012156

Argument of periapsis: 173.9125 deg

Mean anomaly: 215.8991 deg

Mean motion: 14.44535436 rev/day

Mean motion (dot): 0.00004305 rev/day2

B* drag term: 0.00124 1/REarth

Two-line elements (TLE)

Creation date: July 5, 2025, 5:45 p.m.

Reference frame: TEME

Reference center: EARTH

Epoch: July 5, 2025, 11:51 a.m. UTC

TLE line 0: 0 COSMOS 1275 DEB

TLE line 1: 1 17624U 81053KT 25186.49416264 .00004305 00000-0 12400-2 0 9996

TLE line 2: 2 17624 82.8423 8.9429 0012156 173.9125 215.8991 14.44535436 73851

Live tracking on map

Real-time ground track for satellite COSMOS 1275 DEB.

In-orbit conjunctions

A list of the most updated potential collisions computed for object COSMOS 1275 DEB.

Target Orbit TCA Probability of collision Miss distance Type
FENGYUN 1C DEB SSO 2025-06-25 05:14:12 0.0001093271 272.0 (m) DEBRIS
CZ-6A DEB SSO 2025-06-09 19:24:41 0.000135971 133.0 (m) DEBRIS
FENGYUN 1C DEB SSO 2025-05-15 09:03:40 0.00023722 60.0 (m) DEBRIS
CZ-6A DEB LEO 2025-02-01 15:23:34 0.0001181979 377.0 (m) DEBRIS
COSMOS 990 LEO 2024-12-04 21:41:21 0.0002075098 156.0 (m) PAYLOAD

Associated space launch

Navigation satellite providing location information for the Tsiklon-B navigation system

COSMOS 1275 DEB was lifted into orbit during the mission ‘Kosmos-3M | Parus 27’, on board a Kosmos-3M space rocket.

The launch took place on June 4, 1981, 3:41 p.m. from 132/2.

For more information about the launch, click the button.

Launch to space Kosmos-3M | Parus 27
Kosmos-3M | Parus 27

Agency: N/A

Status: Launch Successful

Launch date: June 4, 1981, 3:41 p.m. UTC

Rocket: Kosmos-3M

Launch pad: 132/2

Location: Plesetsk Cosmodrome, Russian Federation

...

Latest news about this satellite

There are no fresh news available about this satellite. Check back as we update our databases every day.


Newsletter sign-up

Weekly statistics, charts and insights to help you stay on top of the space industry.